| time (UTC) | temp F | wind direction | speed MPH | gust MPH | rain 1hr in | rain 24hr in | rain mn in | humidity % | barometer mb |
| 20260507101659 | 37 | 91 | 0.0 | 0.0 | 0.00 | 0.00 | 0.00 | 75 | 932.7 |
| 20260507101155 | 36 | 100 | 0.0 | 0.0 | 0.00 | 0.00 | 0.00 | 76 | 932.3 |
| 20260507100653 | 36 | 99 | 0.0 | 1.0 | 0.00 | 0.00 | 0.00 | 75 | 932.6 |
| 20260507100151 | 37 | 116 | 0.0 | 0.0 | 0.00 | 0.00 | 0.00 | 75 | 932.5 |
| 20260507095648 | 37 | 90 | 0.0 | 0.0 | 0.00 | 0.00 | 0.00 | 76 | 932.6 |
| 20260507095145 | 37 | 89 | 0.0 | 0.0 | 0.00 | 0.00 | 0.00 | 76 | 932.9 |
| 20260507094641 | 36 | 81 | 0.0 | 0.0 | 0.00 | 0.00 | 0.00 | 76 | 932.6 |
| 20260507094138 | 36 | 79 | 0.0 | 0.0 | 0.00 | 0.00 | 0.00 | 76 | 932.7 |
| 20260507093635 | 36 | 83 | 0.0 | 0.0 | 0.00 | 0.00 | 0.00 | 77 | 932.6 |
| 20260507093134 | 35 | 78 | 0.0 | 0.0 | 0.00 | 0.00 | 0.00 | 77 | 932.7 |
| 20260507092631 | 36 | 48 | 0.0 | 0.0 | 0.00 | 0.00 | 0.00 | 77 | 932.7 |
| 20260507092127 | 36 | 51 | 0.0 | 0.0 | 0.00 | 0.00 | 0.00 | 76 | 932.8 |
| 20260507091624 | 36 | 50 | 0.0 | 0.0 | 0.00 | 0.00 | 0.00 | 76 | 932.8 |
| 20260507091119 | 36 | 93 | 0.0 | 0.0 | 0.00 | 0.00 | 0.00 | 75 | 932.7 |
| 20260507090616 | 37 | 87 | 0.0 | 0.0 | 0.00 | 0.00 | 0.00 | 75 | 932.9 |
| 20260507090113 | 37 | 73 | 0.0 | 0.0 | 0.00 | 0.00 | 0.00 | 75 | 932.9 |
| 20260507085610 | 36 | 72 | 0.0 | 0.0 | 0.00 | 0.00 | 0.00 | 76 | 932.7 |
| 20260507085106 | 36 | 68 | 0.0 | 0.0 | 0.00 | 0.00 | 0.00 | 76 | 933.1 |
| 20260507084603 | 36 | 70 | 0.0 | 0.0 | 0.00 | 0.00 | 0.00 | 75 | 933.2 |
| 20260507084100 | 36 | 82 | 0.0 | 0.0 | 0.00 | 0.00 | 0.00 | 76 | 932.8 |
| 20260507083556 | 37 | 62 | 0.0 | 0.0 | 0.00 | 0.00 | 0.00 | 76 | 933.1 |
| 20260507083054 | 37 | 49 | 0.0 | 0.0 | 0.00 | 0.00 | 0.00 | 75 | 933.1 |
| 20260507082549 | 36 | 57 | 0.0 | 0.0 | 0.00 | 0.00 | 0.00 | 77 | 933.2 |
| 20260507082046 | 36 | 58 | 0.0 | 0.0 | 0.00 | 0.00 | 0.00 | 77 | 933.2 |
| 20260507081542 | 36 | 67 | 0.0 | 0.0 | 0.00 | 0.00 | 0.00 | 77 | 933.1 |
| 20260507081040 | 36 | 90 | 0.0 | 0.0 | 0.00 | 0.00 | 0.00 | 76 | 933.2 |
| 20260507080535 | 37 | 76 | 0.0 | 0.0 | 0.00 | 0.00 | 0.00 | 76 | 933.2 |
| 20260507080032 | 37 | 46 | 0.0 | 0.0 | 0.00 | 0.00 | 0.00 | 75 | 933.1 |
| 20260507075527 | 37 | 68 | 0.0 | 0.0 | 0.00 | 0.00 | 0.00 | 74 | 933.2 |
| 20260507075024 | 37 | 65 | 0.0 | 0.0 | 0.00 | 0.00 | 0.00 | 75 | 933.2 |
| 20260507074520 | 37 | 63 | 0.0 | 0.0 | 0.00 | 0.00 | 0.00 | 75 | 933.4 |
| 20260507074019 | 37 | 66 | 0.0 | 0.0 | 0.00 | 0.00 | 0.00 | 75 | 933.4 |
| 20260507073515 | 37 | 58 | 0.0 | 0.0 | 0.00 | 0.00 | 0.00 | 75 | 933.2 |
| 20260507073012 | 37 | 54 | 0.0 | 0.0 | 0.00 | 0.00 | 0.00 | 75 | 933.3 |
| 20260507072509 | 36 | 66 | 0.0 | 0.0 | 0.00 | 0.00 | 0.00 | 77 | 933.3 |
| 20260507072006 | 37 | 77 | 0.0 | 0.0 | 0.00 | 0.00 | 0.00 | 76 | 933.5 |
| 20260507071504 | 37 | 75 | 0.0 | 0.0 | 0.00 | 0.00 | 0.00 | 75 | 933.3 |
| 20260507071000 | 37 | 61 | 0.0 | 0.0 | 0.00 | 0.00 | 0.00 | 75 | 933.4 |
| 20260507070457 | 37 | 60 | 0.0 | 0.0 | 0.00 | 0.00 | 0.00 | 75 | 933.4 |
| 20260507065954 | 38 | 52 | 0.0 | 0.0 | 0.00 | 0.00 | 0.00 | 74 | 933.5 |
| 20260507065451 | 38 | 49 | 0.0 | 0.0 | 0.00 | 0.00 | 0.00 | 73 | 933.4 |
| 20260507064948 | 39 | 59 | 0.0 | 0.0 | 0.00 | 0.00 | 0.00 | 72 | 933.4 |
| 20260507064446 | 39 | 88 | 0.0 | 0.0 | 0.00 | 0.00 | 0.00 | 72 | 933.6 |
| 20260507063943 | 39 | 53 | 0.0 | 0.0 | 0.00 | 0.00 | 0.00 | 73 | 933.4 |
| 20260507063440 | 39 | 65 | 0.0 | 2.0 | 0.00 | 0.00 | 0.00 | 74 | 933.5 |
| 20260507062937 | 38 | 71 | 0.0 | 0.0 | 0.00 | 0.00 | 0.00 | 74 | 933.3 |
| 20260507062434 | 38 | 47 | 0.0 | 0.0 | 0.00 | 0.00 | 0.00 | 74 | 933.3 |
| 20260507061932 | 39 | 45 | 0.0 | 0.0 | 0.00 | 0.00 | 0.00 | 72 | 933.5 |
| 20260507061429 | 39 | 83 | 0.0 | 0.0 | 0.00 | 0.00 | 0.00 | 71 | 933.5 |
| 20260507060928 | 39 | 29 | 0.0 | 0.0 | 0.00 | 0.00 | 0.00 | 71 | 933.4 |
| 20260507060424 | 39 | 48 | 0.0 | 0.0 | 0.00 | 0.00 | 0.00 | 70 | 933.6 |
| 20260507055921 | 40 | 52 | 0.0 | 0.0 | 0.00 | 0.00 | 0.00 | 69 | 933.4 |
| 20260507055416 | 40 | 35 | 0.0 | 0.0 | 0.00 | 0.00 | 0.00 | 68 | 933.5 |
| 20260507054914 | 41 | 45 | 0.0 | 0.0 | 0.00 | 0.00 | 0.00 | 66 | 933.4 |
| 20260507054409 | 41 | 38 | 0.0 | 0.0 | 0.00 | 0.00 | 0.00 | 65 | 933.4 |
| 20260507053907 | 42 | 15 | 0.0 | 0.0 | 0.00 | 0.00 | 0.00 | 63 | 933.5 |
| 20260507053404 | 43 | 358 | 0.0 | 0.0 | 0.00 | 0.00 | 0.00 | 61 | 933.3 |
| 20260507052903 | 43 | 356 | 0.0 | 0.0 | 0.00 | 0.00 | 0.00 | 61 | 933.3 |
| 20260507052400 | 43 | 40 | 0.0 | 0.0 | 0.00 | 0.00 | 0.00 | 60 | 933.4 |
| 20260507051857 | 43 | 33 | 0.0 | 0.0 | 0.00 | 0.00 | 0.00 | 61 | 933.4 |
| 20260507051354 | 43 | 34 | 0.0 | 0.0 | 0.00 | 0.00 | 0.00 | 59 | 933.1 |
| 20260507050851 | 43 | 35 | 0.0 | 0.0 | 0.00 | 0.00 | 0.00 | 61 | 933.3 |
| 20260507050348 | 43 | 44 | 0.0 | 0.0 | 0.00 | 0.00 | 0.00 | 62 | 933.5 |
| 20260507045845 | 43 | 56 | 0.0 | 0.0 | 0.00 | 0.00 | 0.00 | 63 | 933.3 |
| 20260507045341 | 43 | 52 | 0.0 | 0.0 | 0.00 | 0.00 | 0.00 | 63 | 933.3 |
| 20260507044838 | 43 | 50 | 0.0 | 0.0 | 0.00 | 0.00 | 0.00 | 64 | 933.5 |
| 20260507044335 | 44 | 61 | 0.0 | 0.0 | 0.00 | 0.00 | 0.00 | 62 | 933.4 |
| 20260507043830 | 46 | 35 | 0.0 | 0.0 | 0.00 | 0.00 | 0.00 | 54 | 933.3 |
| 20260507043327 | 47 | 291 | 0.0 | 0.0 | 0.00 | 0.00 | 0.00 | 50 | 933.4 |
| 20260507042824 | 47 | 258 | 0.0 | 0.0 | 0.00 | 0.00 | 0.00 | 51 | 933.2 |
| 20260507042319 | 47 | 241 | 0.0 | 5.0 | 0.00 | 0.00 | 0.00 | 51 | 933.3 |
| 20260507041817 | 46 | 223 | 5.0 | 8.0 | 0.00 | 0.00 | 0.00 | 52 | 933.2 |
| 20260507041313 | 46 | 217 | 3.0 | 7.0 | 0.00 | 0.00 | 0.00 | 54 | 933.4 |
| 20260507040810 | 46 | 224 | 4.0 | 9.0 | 0.00 | 0.00 | 0.00 | 55 | 933.3 |
| 20260507040306 | 46 | 219 | 5.0 | 9.0 | 0.00 | 0.00 | 0.00 | 56 | 933.2 |
| 20260507035802 | 46 | 217 | 0.0 | 8.0 | 0.00 | 0.00 | 0.00 | 55 | 933.4 |
| 20260507035257 | 46 | 267 | 2.0 | 7.0 | 0.00 | 0.00 | 0.00 | 54 | 933.3 |
| 20260507034756 | 47 | 204 | 3.0 | 7.0 | 0.00 | 0.00 | 0.00 | 53 | 932.9 |
| 20260507034252 | 47 | 241 | 0.0 | 9.0 | 0.00 | 0.00 | 0.00 | 53 | 933.3 |
| 20260507033751 | 47 | 226 | 5.0 | 7.0 | 0.00 | 0.00 | 0.00 | 53 | 933.3 |
| 20260507033248 | 47 | 221 | 1.0 | 8.0 | 0.00 | 0.00 | 0.00 | 54 | 933.2 |
| 20260507032745 | 47 | 212 | 3.0 | 7.0 | 0.00 | 0.00 | 0.00 | 53 | 932.9 |
| 20260507032241 | 48 | 215 | 0.0 | 1.0 | 0.00 | 0.00 | 0.00 | 53 | 932.8 |
| 20260507031738 | 48 | 242 | 0.0 | 7.0 | 0.00 | 0.00 | 0.00 | 54 | 932.7 |
| 20260507031235 | 48 | 292 | 4.0 | 6.0 | 0.00 | 0.00 | 0.00 | 55 | 932.9 |
| 20260507030731 | 48 | 230 | 0.0 | 0.0 | 0.00 | 0.00 | 0.00 | 54 | 932.5 |
| 20260507030229 | 49 | 288 | 0.0 | 0.0 | 0.00 | 0.00 | 0.00 | 52 | 932.4 |
| 20260507025726 | 49 | 238 | 0.0 | 0.0 | 0.00 | 0.00 | 0.00 | 52 | 932.3 |
| 20260507025223 | 50 | 252 | 0.0 | 2.0 | 0.00 | 0.00 | 0.00 | 50 | 932.3 |
| 20260507024721 | 50 | 297 | 0.0 | 6.0 | 0.00 | 0.00 | 0.00 | 48 | 932.4 |
| 20260507024218 | 51 | 247 | 0.0 | 3.0 | 0.00 | 0.00 | 0.00 | 46 | 932.3 |
| 20260507023713 | 51 | 253 | 0.0 | 2.0 | 0.00 | 0.00 | 0.00 | 44 | 932.1 |
| 20260507023211 | 51 | 273 | 0.0 | 5.0 | 0.00 | 0.00 | 0.00 | 44 | 932.1 |
| 20260507022708 | 52 | 316 | 0.0 | 7.0 | 0.00 | 0.00 | 0.00 | 43 | 932.3 |
| 20260507022204 | 52 | 265 | 1.0 | 8.0 | 0.00 | 0.00 | 0.00 | 42 | 932.0 |
| 20260507021700 | 53 | 247 | 1.0 | 6.0 | 0.00 | 0.00 | 0.00 | 40 | 932.1 |
| 20260507021155 | 54 | 265 | 1.0 | 3.0 | 0.00 | 0.00 | 0.00 | 38 | 932.0 |
| 20260507020654 | 54 | 335 | 1.0 | 5.0 | 0.00 | 0.00 | 0.00 | 37 | 932.3 |
| 20260507020149 | 55 | 330 | 0.0 | 3.0 | 0.00 | 0.00 | 0.00 | 37 | 932.6 |
| 20260507015648 | 55 | 17 | 2.0 | 6.0 | 0.00 | 0.00 | 0.00 | 35 | 932.7 |
| 20260507015145 | 56 | 50 | 0.0 | 0.0 | 0.00 | 0.00 | 0.00 | 36 | 932.7 |
| 20260507014641 | 56 | 305 | 0.0 | 6.0 | 0.00 | 0.00 | 0.00 | 36 | 932.7 |
| 20260507014138 | 55 | 333 | 1.0 | 3.0 | 0.00 | 0.00 | 0.00 | 36 | 932.9 |
| 20260507013635 | 55 | 350 | 1.0 | 7.0 | 0.00 | 0.00 | 0.00 | 35 | 932.6 |
| 20260507013132 | 56 | 331 | 5.0 | 9.0 | 0.00 | 0.00 | 0.00 | 35 | 932.6 |
| 20260507012629 | 56 | 313 | 7.0 | 11.0 | 0.00 | 0.00 | 0.00 | 34 | 932.5 |
| 20260507012124 | 55 | 325 | 7.0 | 10.0 | 0.00 | 0.00 | 0.00 | 34 | 932.4 |
| 20260507011623 | 55 | 297 | 8.0 | 13.0 | 0.00 | 0.00 | 0.00 | 34 | 932.6 |
| 20260507011119 | 55 | 327 | 7.0 | 10.0 | 0.00 | 0.00 | 0.00 | 34 | 932.6 |
| 20260507010614 | 56 | 325 | 7.0 | 13.0 | 0.00 | 0.00 | 0.00 | 35 | 932.5 |
| 20260507010110 | 56 | 334 | 5.0 | 8.0 | 0.00 | 0.00 | 0.00 | 35 | 932.6 |
| 20260507005608 | 56 | 351 | 2.0 | 9.0 | 0.00 | 0.00 | 0.00 | 33 | 932.7 |
| 20260507005103 | 56 | 322 | 1.0 | 13.0 | 0.00 | 0.00 | 0.00 | 34 | 932.7 |
| 20260507004600 | 57 | 324 | 9.0 | 14.0 | 0.00 | 0.00 | 0.00 | 34 | 932.6 |
| 20260507004058 | 56 | 352 | 2.0 | 13.0 | 0.00 | 0.00 | 0.00 | 34 | 932.5 |
| 20260507003554 | 56 | 358 | 6.0 | 14.0 | 0.00 | 0.00 | 0.00 | 35 | 932.6 |
| 20260507003049 | 57 | 320 | 4.0 | 7.0 | 0.00 | 0.00 | 0.00 | 35 | 932.9 |
| 20260507002546 | 56 | 311 | 1.0 | 11.0 | 0.00 | 0.00 | 0.00 | 36 | 932.7 |
| 20260507002041 | 56 | 314 | 10.0 | 10.0 | 0.00 | 0.00 | 0.00 | 35 | 932.7 |
| 20260507001538 | 57 | 325 | 4.0 | 7.0 | 0.00 | 0.00 | 0.00 | 35 | 932.6 |
| 20260507001036 | 57 | 2 | 4.0 | 6.0 | 0.00 | 0.00 | 0.00 | 34 | 932.5 |
| 20260507000532 | 57 | 357 | 4.0 | 7.0 | 0.00 | 0.00 | 0.00 | 36 | 932.7 |
| 20260507000027 | 56 | 325 | 0.0 | 6.0 | 0.00 | 0.00 | 0.00 | 36 | 932.7 |
| 20260506235525 | 55 | 338 | 3.0 | 9.0 | 0.00 | 0.00 | 0.00 | 36 | 932.7 |
| 20260506235021 | 56 | 326 | 9.0 | 15.0 | 0.00 | 0.00 | 0.00 | 37 | 932.9 |
| 20260506234519 | 56 | 279 | 1.0 | 7.0 | 0.00 | 0.00 | 0.00 | 39 | 932.8 |
| 20260506234016 | 56 | 234 | 1.0 | 2.0 | 0.00 | 0.00 | 0.00 | 40 | 932.8 |
| 20260506233512 | 55 | 195 | 1.0 | 6.0 | 0.00 | 0.00 | 0.00 | 42 | 932.9 |
| 20260506233009 | 54 | 311 | 4.0 | 9.0 | 0.00 | 0.00 | 0.00 | 42 | 932.7 |
| 20260506232505 | 56 | 310 | 9.0 | 11.0 | 0.00 | 0.00 | 0.00 | 41 | 932.7 |
| 20260506232001 | 56 | 173 | 0.0 | 2.0 | 0.00 | 0.00 | 0.00 | 42 | 932.7 |
| 20260506231458 | 56 | 241 | 0.0 | 5.0 | 0.00 | 0.00 | 0.00 | 42 | 932.9 |
| 20260506230956 | 55 | 203 | 0.0 | 5.0 | 0.00 | 0.00 | 0.00 | 44 | 932.9 |
| 20260506230451 | 55 | 308 | 10.0 | 13.0 | 0.00 | 0.00 | 0.00 | 42 | 932.7 |
| 20260506225948 | 55 | 265 | 1.0 | 3.0 | 0.00 | 0.00 | 0.00 | 42 | 932.8 |
| 20260506225446 | 56 | 260 | 3.0 | 10.0 | 0.00 | 0.00 | 0.00 | 43 | 932.7 |
| 20260506224943 | 54 | 297 | 0.0 | 5.0 | 0.00 | 0.00 | 0.00 | 44 | 932.8 |
| 20260506224440 | 54 | 303 | 2.0 | 6.0 | 0.00 | 0.00 | 0.00 | 43 | 932.7 |
| 20260506223936 | 55 | 194 | 5.0 | 10.0 | 0.00 | 0.00 | 0.00 | 42 | 932.8 |
| 20260506223432 | 53 | 220 | 5.0 | 10.0 | 0.00 | 0.00 | 0.00 | 44 | 932.9 |
| 20260506222929 | 55 | 214 | 5.0 | 7.0 | 0.00 | 0.00 | 0.00 | 42 | 932.7 |
| 20260506222426 | 54 | 339 | 2.0 | 7.0 | 0.00 | 0.00 | 0.00 | 43 | 933.2 |
| 20260506221923 | 53 | 337 | 2.0 | 8.0 | 0.00 | 0.00 | 0.00 | 44 | 933.1 |
| 20260506221420 | 52 | 348 | 0.0 | 10.0 | 0.00 | 0.00 | 0.00 | 43 | 933.2 |
| 20260506220918 | 53 | 33 | 1.0 | 3.0 | 0.00 | 0.00 | 0.00 | 42 | 933.2 |
| 20260506220413 | 53 | 274 | 0.0 | 3.0 | 0.00 | 0.00 | 0.00 | 44 | 932.9 |
| 20260506215910 | 52 | 24 | 0.0 | 1.0 | 0.00 | 0.00 | 0.00 | 43 | 933.2 |
| 20260506215406 | 52 | 240 | 0.0 | 0.0 | 0.00 | 0.00 | 0.00 | 42 | 933.2 |
| 20260506214902 | 52 | 305 | 5.0 | 9.0 | 0.00 | 0.00 | 0.00 | 45 | 933.2 |
| 20260506214359 | 51 | 170 | 0.0 | 0.0 | 0.00 | 0.00 | 0.00 | 43 | 933.4 |
| 20260506213857 | 50 | 280 | 5.0 | 7.0 | 0.00 | 0.00 | 0.00 | 44 | 933.2 |
| 20260506213354 | 51 | 343 | 3.0 | 9.0 | 0.00 | 0.00 | 0.00 | 44 | 933.4 |
| 20260506212851 | 51 | 308 | 5.0 | 7.0 | 0.00 | 0.00 | 0.00 | 43 | 933.3 |
| 20260506212347 | 49 | 351 | 0.0 | 11.0 | 0.00 | 0.00 | 0.00 | 43 | 933.5 |
| 20260506211842 | 49 | 0 | 0.0 | 8.0 | 0.00 | 0.00 | 0.00 | 43 | 933.6 |
| 20260506211338 | 49 | 328 | 3.0 | 7.0 | 0.00 | 0.00 | 0.00 | 42 | 933.5 |
| 20260506210835 | 49 | 44 | 0.0 | 0.0 | 0.00 | 0.00 | 0.00 | 40 | 933.7 |
| 20260506210332 | 48 | 331 | 3.0 | 6.0 | 0.00 | 0.00 | 0.00 | 41 | 933.7 |
| 20260506205830 | 49 | 330 | 4.0 | 14.0 | 0.00 | 0.00 | 0.00 | 41 | 933.6 |
| 20260506205325 | 51 | 1 | 5.0 | 10.0 | 0.00 | 0.00 | 0.00 | 37 | 933.3 |
| 20260506204822 | 51 | 299 | 0.0 | 1.0 | 0.00 | 0.00 | 0.00 | 38 | 933.5 |
| 20260506204320 | 50 | 258 | 1.0 | 5.0 | 0.00 | 0.00 | 0.00 | 39 | 933.6 |
| 20260506203817 | 49 | 353 | 0.0 | 7.0 | 0.00 | 0.00 | 0.00 | 38 | 933.4 |
| 20260506203314 | 48 | 337 | 0.0 | 2.0 | 0.00 | 0.00 | 0.00 | 39 | 933.5 |
| 20260506202811 | 48 | 333 | 4.0 | 9.0 | 0.00 | 0.00 | 0.00 | 38 | 933.5 |
| 20260506202308 | 49 | 290 | 6.0 | 7.0 | 0.00 | 0.00 | 0.00 | 36 | 933.6 |
| 20260506201804 | 47 | 298 | 7.0 | 10.0 | 0.00 | 0.00 | 0.00 | 38 | 933.5 |
| 20260506201302 | 46 | 352 | 5.0 | 7.0 | 0.00 | 0.00 | 0.00 | 38 | 933.5 |
| 20260506200759 | 47 | 23 | 0.0 | 0.0 | 0.00 | 0.00 | 0.00 | 36 | 933.5 |
| 20260506200255 | 47 | 314 | 1.0 | 6.0 | 0.00 | 0.00 | 0.00 | 37 | 933.4 |
| 20260506195751 | 47 | 258 | 0.0 | 2.0 | 0.00 | 0.00 | 0.00 | 38 | 933.5 |
| 20260506195248 | 47 | 318 | 1.0 | 7.0 | 0.00 | 0.00 | 0.00 | 36 | 933.4 |
| 20260506194745 | 47 | 291 | 0.0 | 7.0 | 0.00 | 0.00 | 0.00 | 35 | 933.4 |
| 20260506194241 | 47 | 232 | 0.0 | 1.0 | 0.00 | 0.00 | 0.00 | 37 | 933.6 |
| 20260506193740 | 46 | 306 | 1.0 | 6.0 | 0.00 | 0.00 | 0.00 | 43 | 933.4 |
| 20260506193236 | 45 | 304 | 5.0 | 8.0 | 0.00 | 0.00 | 0.00 | 39 | 933.3 |
| 20260506192732 | 45 | 334 | 4.0 | 11.0 | 0.00 | 0.00 | 0.00 | 42 | 933.5 |
| 20260506192229 | 46 | 321 | 8.0 | 10.0 | 0.00 | 0.00 | 0.00 | 43 | 933.3 |
| 20260506191726 | 44 | 334 | 0.0 | 10.0 | 0.00 | 0.00 | 0.00 | 44 | 933.7 |
| 20260506191222 | 44 | 6 | 9.0 | 13.0 | 0.00 | 0.00 | 0.00 | 41 | 933.4 |
| 20260506190720 | 45 | 343 | 9.0 | 11.0 | 0.00 | 0.00 | 0.00 | 41 | 933.5 |
| 20260506190216 | 44 | 267 | 5.0 | 9.0 | 0.00 | 0.00 | 0.00 | 47 | 933.5 |
| 20260506185713 | 45 | 299 | 3.0 | 8.0 | 0.00 | 0.00 | 0.00 | 49 | 933.9 |
| 20260506185209 | 44 | 232 | 5.0 | 6.0 | 0.00 | 0.00 | 0.00 | 51 | 933.5 |
| 20260506184707 | 43 | 292 | 4.0 | 9.0 | 0.00 | 0.00 | 0.00 | 51 | 933.6 |
| 20260506184204 | 43 | 346 | 7.0 | 9.0 | 0.00 | 0.00 | 0.00 | 52 | 933.5 |
| 20260506183701 | 42 | 352 | 9.0 | 11.0 | 0.00 | 0.00 | 0.00 | 56 | 933.7 |
| 20260506183157 | 43 | 272 | 5.0 | 9.0 | 0.00 | 0.00 | 0.00 | 54 | 933.2 |
| 20260506182654 | 43 | 6 | 3.0 | 5.0 | 0.00 | 0.00 | 0.00 | 54 | 933.5 |
| 20260506182151 | 44 | 310 | 7.0 | 14.0 | 0.00 | 0.00 | 0.00 | 55 | 933.5 |
| 20260506181649 | 44 | 326 | 3.0 | 3.0 | 0.00 | 0.00 | 0.00 | 50 | 933.7 |
| 20260506181146 | 43 | 353 | 11.0 | 13.0 | 0.00 | 0.00 | 0.00 | 48 | 933.6 |
| 20260506180643 | 43 | 316 | 5.0 | 6.0 | 0.00 | 0.00 | 0.00 | 52 | 933.4 |
| 20260506180139 | 42 | 359 | 5.0 | 7.0 | 0.00 | 0.00 | 0.00 | 52 | 933.5 |
| 20260506175636 | 43 | 123 | 3.0 | 3.0 | 0.00 | 0.00 | 0.00 | 53 | 933.2 |
| 20260506175132 | 40 | 297 | 3.0 | 3.0 | 0.00 | 0.00 | 0.00 | 58 | 933.2 |
| 20260506174625 | 40 | 334 | 5.0 | 7.0 | 0.00 | 0.00 | 0.00 | 60 | 932.8 |
| 20260506174121 | 40 | 352 | 5.0 | 8.0 | 0.00 | 0.00 | 0.00 | 63 | 933.2 |
| 20260506173619 | 40 | 59 | 1.0 | 6.0 | 0.00 | 0.00 | 0.00 | 56 | 933.1 |
| 20260506173115 | 43 | 31 | 4.0 | 6.0 | 0.00 | 0.00 | 0.00 | 57 | 933.2 |
| 20260506172613 | 42 | 132 | 3.0 | 6.0 | 0.00 | 0.00 | 0.00 | 60 | 933.2 |
| 20260506172109 | 42 | 72 | 5.0 | 7.0 | 0.00 | 0.00 | 0.00 | 59 | 933.1 |
| 20260506171607 | 41 | 163 | 3.0 | 5.0 | 0.00 | 0.00 | 0.00 | 58 | 933.2 |
| 20260506171104 | 41 | 75 | 2.0 | 5.0 | 0.00 | 0.00 | 0.00 | 58 | 932.9 |
| 20260506170601 | 39 | 106 | 1.0 | 8.0 | 0.00 | 0.00 | 0.00 | 62 | 932.9 |
| 20260506170059 | 40 | 83 | 3.0 | 7.0 | 0.00 | 0.00 | 0.00 | 63 | 933.1 |
| 20260506165557 | 40 | 130 | 5.0 | 7.0 | 0.00 | 0.00 | 0.00 | 66 | 933.1 |
| 20260506165053 | 39 | 87 | 3.0 | 3.0 | 0.00 | 0.00 | 0.00 | 66 | 932.7 |
| 20260506164550 | 39 | 96 | 6.0 | 7.0 | 0.00 | 0.00 | 0.00 | 66 | 932.6 |
| 20260506164047 | 38 | 68 | 3.0 | 6.0 | 0.00 | 0.00 | 0.00 | 68 | 932.7 |
| 20260506163543 | 38 | 108 | 4.0 | 7.0 | 0.00 | 0.00 | 0.00 | 69 | 932.7 |
| 20260506163039 | 38 | 124 | 2.0 | 5.0 | 0.00 | 0.00 | 0.00 | 69 | 932.8 |
| 20260506162535 | 38 | 79 | 5.0 | 7.0 | 0.00 | 0.00 | 0.00 | 69 | 932.6 |
| 20260506162033 | 37 | 80 | 3.0 | 5.0 | 0.00 | 0.00 | 0.00 | 70 | 932.5 |
| 20260506161530 | 38 | 60 | 2.0 | 5.0 | 0.00 | 0.00 | 0.00 | 68 | 932.8 |
| 20260506161027 | 37 | 51 | 1.0 | 7.0 | 0.00 | 0.00 | 0.00 | 69 | 932.5 |
| 20260506160525 | 36 | 99 | 2.0 | 3.0 | 0.00 | 0.00 | 0.00 | 70 | 932.8 |
| 20260506160022 | 38 | 68 | 0.0 | 1.0 | 0.00 | 0.00 | 0.00 | 71 | 932.4 |
| 20260506155520 | 36 | 87 | 2.0 | 5.0 | 0.00 | 0.00 | 0.00 | 74 | 932.5 |
| 20260506153651 | 35 | 75 | 3.0 | 5.0 | 0.00 | 0.00 | 0.00 | 77 | 932.5 |
| 20260506153149 | 34 | 56 | 2.0 | 3.0 | 0.00 | 0.00 | 0.00 | 77 | 932.5 |
| 20260506152645 | 34 | 77 | 3.0 | 5.0 | 0.00 | 0.00 | 0.00 | 78 | 932.6 |
| 20260506152143 | 33 | 47 | 2.0 | 5.0 | 0.00 | 0.00 | 0.00 | 78 | 932.9 |
| 20260506151641 | 34 | 92 | 3.0 | 3.0 | 0.00 | 0.00 | 0.00 | 77 | 932.6 |
| 20260506151138 | 33 | 123 | 3.0 | 5.0 | 0.00 | 0.00 | 0.00 | 78 | 932.5 |
| 20260506150635 | 34 | 77 | 2.0 | 5.0 | 0.00 | 0.00 | 0.00 | 79 | 932.7 |
| 20260506150132 | 34 | 103 | 3.0 | 6.0 | 0.00 | 0.00 | 0.00 | 79 | 933.1 |
| 20260506145629 | 34 | 87 | 5.0 | 6.0 | 0.00 | 0.00 | 0.00 | 80 | 933.1 |
| 20260506145125 | 34 | 90 | 3.0 | 6.0 | 0.00 | 0.00 | 0.00 | 80 | 933.3 |
| 20260506144623 | 33 | 122 | 6.0 | 8.0 | 0.00 | 0.00 | 0.00 | 80 | 933.5 |
| 20260506144119 | 33 | 59 | 4.0 | 7.0 | 0.00 | 0.00 | 0.00 | 81 | 933.5 |
| 20260506143617 | 33 | 102 | 4.0 | 8.0 | 0.00 | 0.00 | 0.00 | 81 | 933.9 |
| 20260506143115 | 33 | 112 | 5.0 | 6.0 | 0.00 | 0.00 | 0.00 | 82 | 934.1 |
| 20260506142613 | 32 | 118 | 3.0 | 6.0 | 0.00 | 0.00 | 0.00 | 83 | 934.3 |
| 20260506142111 | 32 | 97 | 3.0 | 5.0 | 0.00 | 0.00 | 0.00 | 83 | 934.1 |
| 20260506141608 | 32 | 111 | 5.0 | 6.0 | 0.00 | 0.00 | 0.00 | 83 | 933.7 |
| 20260506141107 | 32 | 107 | 3.0 | 5.0 | 0.00 | 0.00 | 0.00 | 84 | 932.9 |
| 20260506140604 | 32 | 105 | 4.0 | 6.0 | 0.00 | 0.00 | 0.00 | 85 | 932.1 |
| 20260506140101 | 31 | 111 | 3.0 | 6.0 | 0.00 | 0.00 | 0.00 | 86 | 931.3 |
| 20260506135557 | 31 | 90 | 8.0 | 10.0 | 0.00 | 0.00 | 0.00 | 86 | 931.5 |
| 20260506135054 | 31 | 101 | 5.0 | 7.0 | 0.00 | 0.00 | 0.00 | 87 | 931.6 |
| 20260506134550 | 31 | 87 | 7.0 | 8.0 | 0.00 | 0.00 | 0.00 | 87 | 931.7 |
| 20260506134046 | 31 | 107 | 6.0 | 8.0 | 0.00 | 0.00 | 0.00 | 87 | 931.2 |
| 20260506133544 | 30 | 71 | 5.0 | 7.0 | 0.00 | 0.00 | 0.00 | 87 | 931.1 |
| 20260506133041 | 30 | 78 | 5.0 | 10.0 | 0.00 | 0.00 | 0.00 | 87 | 931.1 |
| 20260506132538 | 30 | 74 | 4.0 | 9.0 | 0.00 | 0.00 | 0.00 | 87 | 931.0 |
| 20260506132035 | 30 | 95 | 7.0 | 9.0 | 0.00 | 0.00 | 0.00 | 87 | 931.0 |
| 20260506131532 | 30 | 108 | 5.0 | 9.0 | 0.00 | 0.00 | 0.00 | 87 | 930.9 |
| 20260506131028 | 30 | 122 | 5.0 | 8.0 | 0.00 | 0.00 | 0.00 | 87 | 930.7 |
| 20260506130525 | 30 | 109 | 4.0 | 9.0 | 0.00 | 0.00 | 0.00 | 87 | 930.8 |
| 20260506130023 | 30 | 91 | 7.0 | 10.0 | 0.00 | 0.00 | 0.00 | 87 | 930.3 |
| 20260506125521 | 30 | 90 | 9.0 | 10.0 | 0.00 | 0.00 | 0.00 | 88 | 930.8 |
| 20260506125018 | 30 | 112 | 7.0 | 10.0 | 0.00 | 0.00 | 0.00 | 88 | 930.5 |
| 20260506124516 | 30 | 92 | 6.0 | 9.0 | 0.00 | 0.00 | 0.00 | 89 | 930.4 |
| 20260506124014 | 30 | 110 | 4.0 | 7.0 | 0.00 | 0.00 | 0.00 | 89 | 930.3 |
| 20260506123512 | 30 | 79 | 4.0 | 7.0 | 0.00 | 0.00 | 0.00 | 89 | 930.5 |
| 20260506123009 | 30 | 65 | 5.0 | 8.0 | 0.00 | 0.00 | 0.00 | 89 | 930.3 |
| 20260506122506 | 29 | 101 | 7.0 | 8.0 | 0.00 | 0.00 | 0.00 | 89 | 930.2 |
| 20260506122004 | 29 | 87 | 3.0 | 9.0 | 0.00 | 0.00 | 0.00 | 90 | 930.0 |
| 20260506121501 | 28 | 72 | 6.0 | 7.0 | 0.00 | 0.00 | 0.00 | 91 | 929.9 |
| 20260506120957 | 27 | 95 | 6.0 | 8.0 | 0.00 | 0.00 | 0.00 | 91 | 930.0 |
| 20260506120455 | 27 | 71 | 0.0 | 0.0 | 0.00 | 0.00 | 0.00 | 91 | 930.0 |
| 20260506115952 | 27 | 82 | 2.0 | 5.0 | 0.00 | 0.00 | 0.00 | 91 | 930.1 |
| 20260506115450 | 27 | 76 | 3.0 | 6.0 | 0.00 | 0.00 | 0.00 | 91 | 929.7 |
| 20260506114948 | 27 | 78 | 3.0 | 5.0 | 0.00 | 0.00 | 0.00 | 91 | 929.9 |
| 20260506114445 | 27 | 71 | 4.0 | 6.0 | 0.00 | 0.00 | 0.00 | 91 | 929.6 |
| 20260506113944 | 27 | 62 | 3.0 | 6.0 | 0.00 | 0.00 | 0.00 | 91 | 929.9 |
| 20260506113442 | 27 | 69 | 2.0 | 5.0 | 0.00 | 0.00 | 0.00 | 90 | 929.7 |
| 20260506112937 | 27 | 63 | 1.0 | 2.0 | 0.00 | 0.00 | 0.00 | 90 | 929.7 |
| 20260506112435 | 27 | 67 | 1.0 | 3.0 | 0.00 | 0.00 | 0.00 | 90 | 929.5 |
| 20260506111932 | 28 | 81 | 4.0 | 5.0 | 0.00 | 0.00 | 0.00 | 89 | 929.6 |
| 20260506111430 | 28 | 63 | 0.0 | 3.0 | 0.00 | 0.00 | 0.00 | 89 | 929.5 |
| 20260506110927 | 29 | 46 | 2.0 | 3.0 | 0.00 | 0.00 | 0.00 | 89 | 929.3 |
| 20260506110425 | 29 | 34 | 0.0 | 2.0 | 0.00 | 0.00 | 0.00 | 89 | 929.3 |
| 20260506105921 | 29 | 37 | 2.0 | 6.0 | 0.00 | 0.00 | 0.00 | 88 | 929.3 |
| 20260506105418 | 29 | 39 | 3.0 | 8.0 | 0.00 | 0.00 | 0.00 | 88 | 929.6 |
| 20260506104915 | 29 | 60 | 4.0 | 8.0 | 0.00 | 0.00 | 0.00 | 88 | 929.2 |
| 20260506104413 | 29 | 56 | 4.0 | 8.0 | 0.00 | 0.00 | 0.00 | 88 | 929.3 |
| 20260506103911 | 29 | 89 | 6.0 | 9.0 | 0.00 | 0.00 | 0.00 | 87 | 929.5 |
| 20260506103408 | 29 | 61 | 6.0 | 13.0 | 0.00 | 0.00 | 0.00 | 88 | 929.3 |
| 20260506102905 | 29 | 72 | 9.0 | 11.0 | 0.00 | 0.00 | 0.00 | 88 | 929.4 |
| 20260506102404 | 29 | 65 | 3.0 | 6.0 | 0.00 | 0.00 | 0.00 | 88 | 929.3 |
| 20260506101901 | 30 | 61 | 0.0 | 3.0 | 0.00 | 0.00 | 0.00 | 87 | 929.1 |